CW8306 Weather Reports


time (UTC)temp
F
wind
direction
speed
knots
gust
knots
rain 1hr
in
rain 24hr
in
rain mn
in
humidity
%
barometer
mb
20260504035417 49 252 2.6 7.8 0.05 0.03 0.03 82 995.3
20260504034914 49 307 4.3 8.7 0.05 0.03 0.03 81 995.7
20260504034412 50 241 6.1 9.6 0.07 0.02 0.02 78 995.2
20260504033908 51 330 4.3 6.1 0.07 0.02 0.02 76 995.3
20260504033406 51 251 6.1 12.2 0.07 0.01 0.01 73 995.4
20260504032903 52 245 4.3 12.2 0.07 0.01 0.01 70 995.2
20260504032400 54 330 6.1 8.7 0.00 0.00 0.00 64 995.2
20260504031856 55 327 5.2 7.0 0.00 0.00 0.00 62 995.0
20260504031353 56 16 3.5 7.8 0.00 0.00 0.00 58 995.0
20260504030850 57 283 3.5 7.0 0.00 0.00 0.00 55 995.0
20260504030347 57 26 7.8 12.2 0.00 0.00 0.00 53 995.0
20260504025843 59 270 5.2 7.0 0.00 0.00 0.00 52 994.9
20260504025340 59 353 4.3 7.0 0.00 0.00 0.00 50 994.8
20260504024837 59 295 5.2 7.8 0.00 0.00 0.00 49 994.3
20260504024333 59 359 3.5 7.8 0.00 0.00 0.00 46 994.5
20260504023830 59 324 4.3 8.7 0.00 0.00 0.00 47 994.2
20260504023327 60 100 5.2 8.7 0.00 0.00 0.00 46 994.0
20260504022823 60 20 4.3 6.1 0.00 0.00 0.00 46 994.0
20260504022320 60 76 3.5 8.7 0.00 0.00 0.00 45 994.0
20260504021816 61 252 4.3 9.6 0.00 0.00 0.00 44 993.9
20260504021314 61 183 3.5 11.3 0.00 0.00 0.00 42 994.2
20260504020811 61 340 4.3 12.2 0.00 0.00 0.00 41 994.1
20260504020308 62 282 5.2 12.2 0.00 0.00 0.00 41 994.0
20260504015803 63 301 7.0 11.3 0.00 0.00 0.00 38 993.6
20260504015300 63 301 2.6 7.0 0.00 0.00 0.00 36 993.4
20260504014755 64 298 3.5 7.8 0.00 0.00 0.00 36 993.4
20260504014252 64 305 1.7 6.1 0.00 0.00 0.00 36 993.5
20260504013750 64 296 4.3 7.8 0.00 0.00 0.00 35 993.5
20260504013248 64 313 5.2 8.7 0.00 0.00 0.00 36 993.4
20260504012743 64 242 5.2 7.0 0.00 0.00 0.00 35 993.4
20260504012242 65 297 2.6 5.2 0.00 0.00 0.00 35 993.5
20260504011738 65 17 2.6 7.0 0.00 0.00 0.00 35 993.5
20260504011235 66 330 3.5 8.7 0.00 0.00 0.00 35 993.6
20260504010731 66 237 4.3 6.1 0.00 0.00 0.00 35 993.6
20260504010227 66 282 4.3 7.0 0.00 0.00 0.00 36 993.6
20260504005724 66 216 4.3 9.6 0.00 0.00 0.00 36 994.4
20260504005221 66 315 4.3 6.1 0.00 0.00 0.00 35 994.1
20260504004719 67 203 3.5 6.1 0.00 0.00 0.00 37 994.3
20260504004215 67 238 2.6 7.8 0.00 0.00 0.00 36 994.2
20260504003712 67 4 4.3 9.6 0.00 0.00 0.00 37 994.0
20260504003209 68 331 4.3 7.0 0.00 0.00 0.00 40 994.3
20260504002706 68 251 1.7 6.1 0.00 0.00 0.00 43 994.0
20260504002203 68 342 1.7 6.1 0.00 0.00 0.00 43 994.1
20260504001701 68 199 3.5 5.2 0.00 0.00 0.00 43 994.0
20260504001157 68 308 1.7 7.0 0.00 0.00 0.00 42 994.2
20260504000654 68 280 2.6 5.2 0.00 0.00 0.00 43 994.3
20260504000151 68 308 1.7 6.1 0.00 0.00 0.00 43 994.3
20260503235649 68 266 1.7 8.7 0.00 0.00 0.00 43 994.4
20260503235145 68 347 4.3 11.3 0.00 0.00 0.00 42 994.5
20260503234644 69 301 4.3 8.7 0.00 0.00 0.00 42 994.6
20260503234142 69 267 7.8 13.0 0.00 0.00 0.00 41 994.7
20260503233638 69 218 4.3 11.3 0.00 0.00 0.00 42 994.6
20260503233134 69 356 1.7 12.2 0.00 0.00 0.00 42 994.8
20260503232631 69 252 5.2 9.6 0.00 0.00 0.00 42 994.8
20260503232128 68 293 7.8 13.0 0.00 0.00 0.00 42 995.1
20260503231626 69 283 7.0 9.6 0.00 0.00 0.00 41 995.1
20260503231122 69 298 9.6 13.9 0.00 0.00 0.00 40 995.1
20260503230619 69 301 7.0 12.2 0.00 0.00 0.00 39 994.9
20260503230117 69 216 3.5 9.6 0.00 0.00 0.00 39 995.0
20260503225614 69 212 5.2 13.9 0.00 0.00 0.00 38 995.1
20260503225113 70 241 6.1 11.3 0.00 0.00 0.00 38 995.1
20260503224611 70 255 5.2 13.0 0.00 0.00 0.00 37 994.8
20260503224109 70 313 6.1 18.2 0.00 0.00 0.00 37 994.9
20260503223607 70 311 7.8 13.9 0.00 0.00 0.00 36 995.0
20260503223102 70 270 4.3 11.3 0.00 0.00 0.00 35 995.0
20260503222600 70 254 2.6 7.8 0.00 0.00 0.00 34 995.0
20260503222058 70 247 2.6 14.8 0.00 0.00 0.00 34 995.3
20260503221555 70 233 3.5 12.2 0.00 0.00 0.00 35 995.1
20260503221053 69 329 2.6 12.2 0.00 0.00 0.00 35 995.5
20260503220549 70 208 6.1 13.0 0.00 0.00 0.00 34 995.5
20260503220046 71 279 9.6 15.6 0.00 0.00 0.00 33 995.6
20260503215543 71 315 2.6 8.7 0.00 0.00 0.00 28 995.7
20260503215040 72 228 0.9 2.6 0.00 0.00 0.00 28 995.9
20260503214538 72 309 7.0 13.9 0.00 0.00 0.00 27 995.8
20260503214035 72 256 4.3 8.7 0.00 0.00 0.00 28 995.7
20260503213533 72 210 0.9 4.3 0.00 0.00 0.00 28 995.8
20260503213030 72 182 1.7 6.1 0.00 0.00 0.00 29 995.8
20260503212527 71 215 0.9 2.6 0.00 0.00 0.00 29 995.9
20260503212024 70 260 3.5 7.0 0.00 0.00 0.00 29 996.3
20260503211521 69 262 6.1 13.0 0.00 0.00 0.00 30 996.3
20260503211017 69 354 2.6 6.1 0.00 0.00 0.00 32 996.7
20260503210514 69 140 0.9 1.7 0.00 0.00 0.00 33 997.0
20260503210009 69 201 0.9 5.2 0.00 0.00 0.00 32 997.1
20260503205506 69 239 2.6 8.7 0.00 0.00 0.00 32 997.5
20260503205002 69 253 3.5 7.8 0.00 0.00 0.00 32 997.2
20260503204500 69 329 5.2 8.7 0.00 0.00 0.00 32 997.3
20260503203956 70 208 1.7 5.2 0.00 0.00 0.00 29 997.2
20260503203454 70 284 4.3 12.2 0.00 0.00 0.00 29 997.5
20260503202950 71 327 2.6 6.1 0.00 0.00 0.00 29 997.4
20260503202449 71 237 0.9 5.2 0.00 0.00 0.00 29 997.6
20260503201947 71 292 4.3 7.8 0.00 0.00 0.00 29 998.0
20260503201444 71 220 3.5 7.8 0.00 0.00 0.00 29 998.4
20260503200941 71 320 6.1 8.7 0.00 0.00 0.00 30 998.5
20260503200438 71 324 7.8 14.8 0.00 0.00 0.00 29 998.6
20260503195934 71 266 4.3 8.7 0.00 0.00 0.00 29 998.8
20260503195432 71 308 3.5 8.7 0.00 0.00 0.00 28 999.2
20260503194928 72 256 6.1 9.6 0.00 0.00 0.00 29 999.2
20260503194425 72 299 0.9 9.6 0.00 0.00 0.00 29 999.4
20260503193920 72 256 4.3 8.7 0.00 0.00 0.00 30 999.5
20260503193416 71 273 1.7 14.8 0.00 0.00 0.00 30 999.7
20260503192912 71 250 5.2 11.3 0.00 0.00 0.00 30 999.8
20260503192408 71 150 2.6 8.7 0.00 0.00 0.00 31 1000.0
20260503191904 71 228 1.7 8.7 0.00 0.00 0.00 31 1000.1
20260503191402 71 243 2.6 9.6 0.00 0.00 0.00 32 1000.3
20260503190858 70 237 1.7 9.6 0.00 0.00 0.00 31 1000.4
20260503190355 71 223 6.1 9.6 0.00 0.00 0.00 31 1000.8
20260503185852 71 262 0.0 5.2 0.00 0.00 0.00 32 1000.7
20260503185348 70 198 0.9 2.6 0.00 0.00 0.00 33 1000.7
20260503184848 70 193 0.9 5.2 0.00 0.00 0.00 32 1001.1
20260503184344 69 80 1.7 7.0 0.00 0.00 0.00 33 1001.2
20260503183840 69 187 1.7 7.0 0.00 0.00 0.00 33 1001.4
20260503183338 69 207 2.6 5.2 0.00 0.00 0.00 33 1001.8
20260503182835 69 254 4.3 7.8 0.00 0.00 0.00 33 1001.7
20260503182334 70 185 1.7 7.0 0.00 0.00 0.00 33 1001.9
20260503181831 70 308 1.7 2.6 0.00 0.00 0.00 33 1002.1
20260503181328 70 202 1.7 4.3 0.00 0.00 0.00 33 1002.3
20260503180824 70 227 1.7 8.7 0.00 0.00 0.00 33 1002.3
20260503180322 70 208 1.7 6.1 0.00 0.00 0.00 32 1002.5
20260503175818 69 232 0.9 2.6 0.00 0.00 0.00 31 1002.9
20260503175317 69 273 1.7 2.6 0.00 0.00 0.00 31 1003.3
20260503174812 69 314 2.6 5.2 0.00 0.00 0.00 31 1003.1
20260503174310 69 240 2.6 7.8 0.00 0.00 0.00 31 1003.5
20260503173806 69 201 2.6 4.3 0.00 0.00 0.00 30 1003.3
20260503173302 68 326 1.7 5.2 0.00 0.00 0.00 31 1003.7
20260503172759 68 275 3.5 6.1 0.00 0.00 0.00 31 1003.7
20260503172256 68 297 0.9 1.7 0.00 0.00 0.00 32 1003.8
20260503171752 67 328 1.7 6.1 0.00 0.00 0.00 33 1004.4
20260503171249 68 214 0.9 2.6 0.00 0.00 0.00 32 1004.6
20260503170746 67 107 2.6 4.3 0.00 0.00 0.00 33 1004.7
20260503170243 66 359 2.6 7.0 0.00 0.00 0.00 34 1004.7
20260503160205 62 287 3.5 4.3 0.00 0.00 0.00 40 1006.3
20260503150635 57 210 1.7 4.3 0.00 0.00 0.00 47 1007.4
20260503150131 57 314 0.9 4.3 0.00 0.00 0.00 48 1007.5
20260503131025 43 275 1.7 2.6 0.00 0.00 0.00 61 1009.3
20260503130522 43 290 0.9 4.3 0.00 0.00 0.00 61 1009.3
20260503110413 31 218 0.0 0.0 0.00 0.00 0.00 82 1010.0
20260503090304 36 229 0.0 0.9 0.00 0.00 0.00 73 1010.5
20260503081231 37 223 0.0 0.0 0.00 0.00 0.00 76 1010.5
20260503080726 38 223 0.0 0.9 0.00 0.00 0.00 76 1010.5
20260503080224 38 223 0.0 0.0 0.00 0.00 0.00 76 1010.3
20260503072701 37 215 0.0 0.0 0.00 0.00 0.00 74 1010.5
20260503072157 38 215 0.0 0.0 0.00 0.00 0.00 74 1010.4
20260503071654 38 215 0.0 0.0 0.00 0.00 0.00 74 1010.8
20260503071151 38 215 0.0 0.0 0.00 0.00 0.00 73 1010.6
20260503070648 39 215 0.0 0.0 0.00 0.00 0.00 73 1010.7
20260503070146 39 215 0.0 0.0 0.00 0.00 0.00 72 1010.6
20260503060110 45 196 0.0 0.0 0.00 0.00 0.00 61 1010.5
20260503055102 44 160 0.9 1.7 0.00 0.00 0.00 61 1010.8
20260503054557 44 192 0.0 0.9 0.00 0.00 0.00 62 1010.6
20260503054054 45 212 0.0 0.0 0.00 0.00 0.00 62 1010.8
20260503053553 45 209 0.0 0.0 0.00 0.00 0.00 61 1011.0
20260503053050 46 204 0.0 0.9 0.00 0.00 0.00 60 1011.2
20260503052547 46 194 0.0 1.7 0.00 0.00 0.00 60 1010.9
20260503052043 47 211 0.0 1.7 0.00 0.00 0.00 59 1011.2
20260503051538 47 215 0.0 0.9 0.00 0.00 0.00 58 1011.3
20260503051037 47 196 0.0 2.6 0.00 0.00 0.00 58 1011.2
20260503050532 48 217 0.9 1.7 0.00 0.00 0.00 57 1010.9
20260503050030 48 197 0.9 1.7 0.00 0.00 0.00 56 1011.0
20260503045527 48 24 2.6 6.1 0.00 0.00 0.00 56 1010.9
20260503045024 48 55 1.7 1.7 0.00 0.00 0.00 56 1010.8
20260503044520 48 180 0.0 1.7 0.00 0.00 0.00 57 1010.8
20260503044018 49 26 1.7 2.6 0.00 0.00 0.00 55 1010.6
20260503043514 49 78 3.5 6.1 0.00 0.00 0.00 55 1010.6
20260503043011 50 40 1.7 1.7 0.00 0.00 0.00 55 1010.8
20260503042508 50 30 3.5 5.2 0.00 0.00 0.00 54 1010.6
20260503042004 50 20 0.9 6.1 0.00 0.00 0.00 54 1010.7
20260503041501 51 139 0.9 4.3 0.00 0.00 0.00 54 1010.7
20260503040959 51 34 2.6 4.3 0.00 0.00 0.00 54 1010.7
20260503040456 51 326 2.6 5.2 0.00 0.00 0.00 53 1010.6
20260503035953 52 16 2.6 2.6 0.00 0.00 0.00 54 1010.5